Flag for Canada Weather past 2 weeks in Guelph, Ontario, Canada

Now
39 °F

Light rain. Cloudy.


Feels Like: 30 °F
Forecast: 28 / 38 °F
Wind: 16 mph from West

Location: Waterloo Well

Current Time: Mar 30, 2015 at 1:21:57 PM

Latest Report: Mar 30, 2015 at 12:55 PM


Visibility: 9 mi

Pressure: 29.80 "Hg

Humidity: 81%

Dew point: 34 °F

Location of GuelphLocation

Historic Weather in Guelph — Graph

°F

Guelph temperature yesterday

Maximum temperature yesterday: 39 °F (at 1:00 PM)
Minimum temperature yesterday: 14 °F (at 6:00 AM)
Average temperature yesterday: 28 °F

Past Weeks' High & Low Weather Summary

 TemperatureHumidityPressure
High77 °F (Mar 24, 1:00 PM)100% (Mar 16, 8:00 AM)30.40 "Hg (Mar 16, 8:00 AM)
Low10 °F (Mar 28, 5:00 AM)5% (Mar 24, 1:00 PM)29.59 "Hg (Mar 30, 3:45 AM)
Average31 °F70%30.03 "Hg
* Reported Mar 15 12:00 Noon — Mar 30 12:00 Noon, Guelph, Weather by CustomWeather, © 2015

Note: Actual official high and low records may vary slightly from our data, if they occured in-between our weather recording intervals... More about our weather records

Advertising

Guelph weather history for previous 24 hours

 ConditionsComfort  
Time TempWeatherWind HumidityBarometerVisibility
12:00 PM
Mon, Mar 30
39 °FMostly cloudy.20 mph65%29.79 "Hg9 mi
11:04 AM37 °FMostly cloudy.20 mph75%29.78 "Hg9 mi
11:00 AM37 °FMostly cloudy.17 mph75%29.78 "Hg9 mi
10:00 AM36 °FLight rain. More clouds than sun.18 mph81%29.77 "Hg9 mi
9:57 AM36 °FLight rain. More clouds than sun.17 mph81%29.77 "Hg9 mi
9:04 AM34 °FLight rain. Cloudy.17 mph93%29.74 "Hg7 mi
8:57 AM34 °FLight rain. Fog.21 mph87%29.73 "Hg3 mi
8:02 AM36 °FOvercast.24 mph81%29.71 "Hg9 mi
7:00 AM36 °FOvercast.24 mph81%29.67 "Hg9 mi
6:02 AM36 °FLight rain. Mostly cloudy.21 mph81%29.65 "Hg9 mi
5:00 AM36 °FOvercast.25 mph87%29.61 "Hg9 mi
4:00 AM36 °FLight rain. Overcast.18 mph93%29.60 "Hg9 mi
3:45 AM36 °FLight rain. Overcast.21 mph93%29.59 "Hg9 mi
3:00 AM36 °FLight rain. Fog.20 mph93%29.60 "Hg4 mi
2:46 AM36 °FLight rain. Fog.21 mph93%29.61 "Hg5 mi
2:00 AM34 °FLight rain. Fog.22 mph93%29.63 "Hg3 mi
1:45 AM34 °FLight rain. Fog.20 mph93%29.65 "Hg3 mi
1:00 AM36 °FLight rain. Mostly cloudy.22 mph87%29.67 "Hg7 mi
12:00 AM36 °FLight rain. Overcast.20 mph70%29.72 "Hg9 mi
11:00 PM
Sun, Mar 29
32 °FOvercast.13 mph93%29.76 "Hg9 mi
10:00 PM32 °FLight freezing rain. Mostly cloudy.18 mph93%29.84 "Hg9 mi
9:56 PM32 °FLight freezing rain. Ice fog.17 mph93%29.85 "Hg6 mi
9:00 PM32 °FLight snow. Low clouds.16 mph93%29.88 "Hg1 mi
8:00 PM37 °FLight rain. Mostly cloudy.26 mph52%29.88 "Hg9 mi
7:00 PM37 °FPartly sunny.17 mph41%29.89 "Hg9 mi
6:00 PM36 °FSunny.18 mph44%29.92 "Hg9 mi
5:00 PM36 °FSunny.24 mph38%29.98 "Hg9 mi
4:00 PM37 °FPassing clouds.21 mph33%30.03 "Hg9 mi
3:00 PM37 °FSunny.21 mph38%30.08 "Hg9 mi
2:00 PM39 °FSunny.24 mph36%30.14 "Hg9 mi
1:00 PM39 °FSunny.21 mph39%30.18 "Hg9 mi
Weather by CustomWeather, © 2015

See weather overviewHow to use our weather pages